STARLINK-35265

Last updated on Mon Oct 20 2025 00:02:06 GMT+0000 (Coordinated Universal Time)

1 65748U 25216Q 25292.25002315 -.01596615 00000+0 -40691-1 0 9999 2 65748 53.1596 272.2064 0000391 54.8020 12.7856 15.42293152 4924
UTC large
Height (km)
Speed (km/s)
/
Latitude / Longitude
Inclination (degrees)
Orbital Period (minutes)
Azimuth
Elevation
Range (km)
Doppler Factor

Next 0 passes for location: London (51.5072 / 0.1276)

Sorry there are no passes over London.